Location: Newark
(43.0000°N, 1.6781°W)
Time: 16:10:17
(UTC+00:00)

PCSat - Pass Details

Date: 08 December 2022
Orbit: 785 x 793 km, 67.1° (Epoch: 05 February)

Event Time Altitude Azimuth Distance (km) Brightness Sun altitude
Rises 17:28:52 0° 186° (S) 3,261 13.2 -10.2°
Reaches altitude 10° 17:31:24 10° 178° (S) 2,338 12.3 -10.6°
Maximum altitude 17:36:18 38° 111° (ESE) 1,195 10.2 -11.4°
Enters shadow 17:40:20 15° 50° (NE) 2,047 11.1 -12.1°
